Time,TemperatureF,DewpointF,PressureIn,WindDirection,WindDirectionDegrees,WindSpeedMPH,WindSpeedGustMPH,Humidity,HourlyPrecipIn,Conditions,Clouds,dailyrainin,SoftwareType,DateUTC
2013-02-16 00:00:00,50.0,37.1,29.86,North,0,0.0,0.0,61,0.00,,,0.00,WUHU216HW,2013-02-16 05:00:00,
2013-02-16 00:01:00,50.0,37.1,29.85,North,0,0.0,0.0,61,0.00,,,0.00,WUHU216HW,2013-02-16 05:01:00,
2013-02-16 00:06:00,49.9,37.0,29.86,North,0,0.0,0.0,61,0.00,,,0.00,WUHU216HW,2013-02-16 05:06:00,
2013-02-16 00:11:00,49.7,37.2,29.85,North,0,0.0,0.0,62,0.00,,,0.00,WUHU216HW,2013-02-16 05:11:00,
2013-02-16 00:16:00,49.5,37.0,29.86,North,0,0.0,0.0,62,0.00,,,0.00,WUHU216HW,2013-02-16 05:16:00,
2013-02-16 00:21:00,49.3,36.8,29.85,North,0,0.0,0.0,62,0.00,,,0.00,WUHU216HW,2013-02-16 05:21:00,
2013-02-16 00:23:00,49.3,36.8,29.85,North,0,0.0,0.0,62,0.00,,,0.00,WUHU216HW,2013-02-16 05:23:00,
2013-02-16 00:28:00,49.1,36.7,29.85,North,0,0.0,0.0,62,0.00,,,0.00,WUHU216HW,2013-02-16 05:28:00,
2013-02-16 00:33:00,49.1,37.1,29.85,North,0,0.0,0.0,63,0.00,,,0.00,WUHU216HW,2013-02-16 05:33:00,
2013-02-16 00:38:00,49.0,36.9,29.85,North,0,0.0,0.0,63,0.00,,,0.00,WUHU216HW,2013-02-16 05:38:00,
2013-02-16 00:43:00,49.0,36.9,29.84,North,0,0.0,0.0,63,0.00,,,0.00,WUHU216HW,2013-02-16 05:43:00,
2013-02-16 00:48:00,48.8,36.7,29.85,North,0,0.0,0.0,63,0.00,,,0.00,WUHU216HW,2013-02-16 05:48:00,
2013-02-16 00:53:00,48.8,36.7,29.85,North,0,0.0,0.0,63,0.00,,,0.00,WUHU216HW,2013-02-16 05:53:00,
2013-02-16 00:58:00,48.6,36.5,29.85,North,0,0.0,0.0,63,0.00,,,0.00,WUHU216HW,2013-02-16 05:58:00,
2013-02-16 01:03:00,48.6,36.5,29.85,North,0,0.0,0.0,63,0.00,,,0.00,WUHU216HW,2013-02-16 06:03:00,
2013-02-16 01:08:00,48.6,36.5,29.85,North,0,0.0,0.0,63,0.00,,,0.00,WUHU216HW,2013-02-16 06:08:00,
2013-02-16 01:13:00,48.4,36.4,29.85,North,0,0.0,0.0,63,0.00,,,0.00,WUHU216HW,2013-02-16 06:13:00,
2013-02-16 01:18:00,48.2,36.3,29.86,North,0,0.0,0.0,63,0.00,,,0.00,WUHU216HW,2013-02-16 06:18:00,
2013-02-16 01:23:00,48.2,36.3,29.85,North,0,0.0,0.0,63,0.00,,,0.00,WUHU216HW,2013-02-16 06:23:00,
2013-02-16 01:28:00,48.1,36.1,29.85,North,0,0.0,0.0,63,0.00,,,0.00,WUHU216HW,2013-02-16 06:28:00,
2013-02-16 01:33:00,48.1,36.1,29.85,North,0,0.0,0.0,63,0.00,,,0.00,WUHU216HW,2013-02-16 06:33:00,
2013-02-16 01:38:00,47.9,35.9,29.85,North,0,0.0,0.0,63,0.00,,,0.00,WUHU216HW,2013-02-16 06:38:00,
2013-02-16 01:43:00,47.9,35.9,29.85,North,0,0.0,0.0,63,0.00,,,0.00,WUHU216HW,2013-02-16 06:43:00,
2013-02-16 01:48:00,47.9,35.9,29.85,North,0,0.0,0.0,63,0.00,,,0.00,WUHU216HW,2013-02-16 06:48:00,
2013-02-16 01:53:00,47.7,35.7,29.84,North,0,0.0,0.0,63,0.00,,,0.00,WUHU216HW,2013-02-16 06:53:00,
2013-02-16 01:58:00,47.5,35.6,29.85,North,0,0.0,0.0,63,0.00,,,0.00,WUHU216HW,2013-02-16 06:58:00,
2013-02-16 02:03:00,47.3,35.4,29.84,North,0,0.0,0.0,63,0.00,,,0.00,WUHU216HW,2013-02-16 07:03:00,
2013-02-16 02:08:00,47.2,35.6,29.84,North,0,0.0,0.0,64,0.00,,,0.00,WUHU216HW,2013-02-16 07:08:00,
2013-02-16 02:13:00,47.0,35.4,29.84,North,0,0.0,0.0,64,0.00,,,0.00,WUHU216HW,2013-02-16 07:13:00,
2013-02-16 02:19:00,46.8,35.2,29.85,North,0,0.0,0.0,64,0.00,,,0.00,WUHU216HW,2013-02-16 07:19:00,
2013-02-16 02:24:00,46.6,35.1,29.84,North,0,0.0,0.0,64,0.00,,,0.00,WUHU216HW,2013-02-16 07:24:00,
2013-02-16 02:29:00,46.4,34.9,29.84,North,0,0.0,0.0,64,0.00,,,0.00,WUHU216HW,2013-02-16 07:29:00,
2013-02-16 02:34:00,46.4,34.9,29.84,North,0,0.0,0.0,64,0.00,,,0.00,WUHU216HW,2013-02-16 07:34:00,
2013-02-16 02:39:00,46.3,34.8,29.84,North,0,0.0,0.0,64,0.00,,,0.00,WUHU216HW,2013-02-16 07:39:00,
2013-02-16 02:44:00,46.1,34.6,29.84,North,0,0.0,0.0,64,0.00,,,0.00,WUHU216HW,2013-02-16 07:44:00,
2013-02-16 02:49:00,45.9,34.4,29.84,North,0,0.0,0.0,64,0.00,,,0.00,WUHU216HW,2013-02-16 07:49:00,
2013-02-16 02:54:00,45.9,34.7,29.84,North,0,0.0,0.0,65,0.00,,,0.00,WUHU216HW,2013-02-16 07:54:00,
2013-02-16 02:59:00,45.7,34.6,29.84,North,0,0.0,0.0,65,0.00,,,0.00,WUHU216HW,2013-02-16 07:59:00,
2013-02-16 03:04:00,45.7,34.6,29.84,North,0,0.0,0.0,65,0.00,,,0.00,WUHU216HW,2013-02-16 08:04:00,
2013-02-16 03:09:00,45.5,34.0,29.84,North,0,0.0,0.0,64,0.00,,,0.00,WUHU216HW,2013-02-16 08:09:00,
2013-02-16 03:14:00,45.4,33.8,29.83,North,0,0.0,0.0,64,0.00,,,0.00,WUHU216HW,2013-02-16 08:14:00,
2013-02-16 03:19:00,45.4,34.3,29.83,North,0,0.0,0.0,65,0.00,,,0.00,WUHU216HW,2013-02-16 08:19:00,
2013-02-16 03:24:00,45.2,34.1,29.83,North,0,0.0,0.0,65,0.00,,,0.00,WUHU216HW,2013-02-16 08:24:00,
2013-02-16 03:29:00,45.0,33.9,29.84,North,0,0.0,0.0,65,0.00,,,0.00,WUHU216HW,2013-02-16 08:29:00,
2013-02-16 03:34:00,45.0,33.9,29.84,North,0,0.0,0.0,65,0.00,,,0.00,WUHU216HW,2013-02-16 08:34:00,
2013-02-16 03:39:00,44.8,33.8,29.84,North,0,0.0,0.0,65,0.00,,,0.00,WUHU216HW,2013-02-16 08:39:00,
2013-02-16 03:44:00,44.6,33.6,29.84,North,0,0.0,0.0,65,0.00,,,0.00,WUHU216HW,2013-02-16 08:44:00,
2013-02-16 03:49:00,44.6,33.6,29.84,North,0,0.0,0.0,65,0.00,,,0.00,WUHU216HW,2013-02-16 08:49:00,
2013-02-16 03:55:00,44.6,33.6,29.83,North,0,0.0,0.0,65,0.00,,,0.00,WUHU216HW,2013-02-16 08:55:00,
2013-02-16 04:00:00,44.6,33.6,29.83,North,0,0.0,0.0,65,0.00,,,0.00,WUHU216HW,2013-02-16 09:00:00,
2013-02-16 04:05:00,44.6,33.2,29.83,North,0,0.0,0.0,64,0.00,,,0.00,WUHU216HW,2013-02-16 09:05:00,
2013-02-16 04:10:00,44.5,33.0,29.84,North,0,0.0,0.0,64,0.00,,,0.00,WUHU216HW,2013-02-16 09:10:00,
2013-02-16 04:15:00,44.5,33.0,29.84,North,0,0.0,0.0,64,0.00,,,0.00,WUHU216HW,2013-02-16 09:15:00,
2013-02-16 04:20:00,44.5,33.0,29.84,North,0,0.0,0.0,64,0.00,,,0.00,WUHU216HW,2013-02-16 09:20:00,
2013-02-16 04:25:00,44.5,33.0,29.84,North,0,0.0,0.0,64,0.00,,,0.00,WUHU216HW,2013-02-16 09:25:00,
2013-02-16 04:30:00,44.5,33.0,29.84,North,0,0.0,0.0,64,0.00,,,0.00,WUHU216HW,2013-02-16 09:30:00,
2013-02-16 04:35:00,44.3,32.9,29.84,North,0,0.0,0.0,64,0.00,,,0.00,WUHU216HW,2013-02-16 09:35:00,
2013-02-16 04:40:00,44.3,32.9,29.84,North,0,0.0,0.0,64,0.00,,,0.00,WUHU216HW,2013-02-16 09:40:00,
2013-02-16 04:45:00,44.3,32.9,29.83,North,0,0.0,0.0,64,0.00,,,0.00,WUHU216HW,2013-02-16 09:45:00,
2013-02-16 04:50:00,44.3,32.9,29.83,North,0,0.0,0.0,64,0.00,,,0.00,WUHU216HW,2013-02-16 09:50:00,
2013-02-16 04:55:00,44.3,32.5,29.84,North,0,0.0,0.0,63,0.00,,,0.00,WUHU216HW,2013-02-16 09:55:00,
2013-02-16 05:00:00,44.1,32.3,29.85,North,0,0.0,0.0,63,0.00,,,0.00,WUHU216HW,2013-02-16 10:00:00,
2013-02-16 05:05:00,44.1,32.3,29.85,North,0,0.0,0.0,63,0.00,,,0.00,WUHU216HW,2013-02-16 10:05:00,
2013-02-16 05:10:00,44.1,32.3,29.85,North,0,0.0,0.0,63,0.00,,,0.00,WUHU216HW,2013-02-16 10:10:00,
2013-02-16 05:15:00,43.9,32.1,29.85,North,0,0.0,0.0,63,0.00,,,0.00,WUHU216HW,2013-02-16 10:15:00,
2013-02-16 05:20:00,43.9,32.1,29.86,North,0,0.0,0.0,63,0.00,,,0.00,WUHU216HW,2013-02-16 10:20:00,
2013-02-16 05:25:00,43.6,31.8,29.85,North,0,0.0,0.0,63,0.00,,,0.00,WUHU216HW,2013-02-16 10:25:00,
2013-02-16 05:30:00,43.2,31.8,29.85,North,0,0.0,0.0,64,0.00,,,0.00,WUHU216HW,2013-02-16 10:30:00,
2013-02-16 05:35:00,42.8,31.9,29.85,North,0,0.0,0.0,65,0.00,,,0.00,WUHU216HW,2013-02-16 10:35:00,
2013-02-16 05:40:00,42.3,31.8,29.85,North,0,0.0,0.0,66,0.00,,,0.00,WUHU216HW,2013-02-16 10:40:00,
2013-02-16 05:45:00,41.9,31.8,29.85,North,0,0.0,0.0,67,0.00,,,0.00,WUHU216HW,2013-02-16 10:45:00,
2013-02-16 05:50:00,41.6,31.4,29.85,North,0,0.0,0.0,67,0.00,,,0.00,WUHU216HW,2013-02-16 10:50:00,
2013-02-16 05:56:00,41.4,32.1,29.86,North,0,0.0,0.0,69,0.00,,,0.00,WUHU216HW,2013-02-16 10:56:00,
2013-02-16 06:01:00,40.9,31.5,29.85,North,0,0.0,0.0,69,0.00,,,0.00,WUHU216HW,2013-02-16 11:01:00,
2013-02-16 06:06:00,40.7,31.7,29.85,North,0,0.0,0.0,70,0.00,,,0.00,WUHU216HW,2013-02-16 11:06:00,
2013-02-16 06:11:00,40.7,31.7,29.85,North,0,0.0,0.0,70,0.00,,,0.00,WUHU216HW,2013-02-16 11:11:00,
2013-02-16 06:16:00,40.7,32.1,29.86,North,0,0.0,0.0,71,0.00,,,0.00,WUHU216HW,2013-02-16 11:16:00,
2013-02-16 06:21:00,40.5,31.9,29.85,North,0,0.0,0.0,71,0.00,,,0.00,WUHU216HW,2013-02-16 11:21:00,
2013-02-16 06:26:00,40.5,32.1,29.85,North,0,0.0,0.0,72,0.00,,,0.00,WUHU216HW,2013-02-16 11:26:00,
2013-02-16 06:31:00,40.3,32.0,29.85,North,0,0.0,0.0,72,0.00,,,0.00,WUHU216HW,2013-02-16 11:31:00,
2013-02-16 06:36:00,40.3,32.0,29.85,North,0,0.0,0.0,72,0.00,,,0.00,WUHU216HW,2013-02-16 11:36:00,
2013-02-16 06:41:00,40.1,31.8,29.86,North,0,0.0,0.0,72,0.00,,,0.00,WUHU216HW,2013-02-16 11:41:00,
2013-02-16 06:46:00,40.0,32.0,29.86,North,0,0.0,0.0,73,0.00,,,0.00,WUHU216HW,2013-02-16 11:46:00,
2013-02-16 06:51:00,40.0,32.0,29.85,North,0,0.0,0.0,73,0.00,,,0.00,WUHU216HW,2013-02-16 11:51:00,
2013-02-16 06:56:00,39.8,31.8,29.85,North,0,0.0,0.0,73,0.00,,,0.00,WUHU216HW,2013-02-16 11:56:00,
2013-02-16 07:01:00,39.6,31.6,29.85,North,0,0.0,0.0,73,0.00,,,0.00,WUHU216HW,2013-02-16 12:01:00,
2013-02-16 07:07:00,39.6,32.0,29.85,North,0,0.0,0.0,74,0.00,,,0.00,WUHU216HW,2013-02-16 12:07:00,
2013-02-16 07:12:00,39.6,32.0,29.85,North,0,0.0,0.0,74,0.00,,,0.00,WUHU216HW,2013-02-16 12:12:00,
2013-02-16 07:17:00,39.6,32.0,29.85,North,0,0.0,0.0,74,0.00,,,0.00,WUHU216HW,2013-02-16 12:17:00,
2013-02-16 07:22:00,39.4,32.1,29.86,North,0,0.0,0.0,75,0.00,,,0.00,WUHU216HW,2013-02-16 12:22:00,
2013-02-16 07:27:00,39.4,32.1,29.86,North,0,0.0,0.0,75,0.00,,,0.00,WUHU216HW,2013-02-16 12:27:00,
2013-02-16 07:32:00,39.4,32.1,29.86,North,0,0.0,0.0,75,0.00,,,0.00,WUHU216HW,2013-02-16 12:32:00,
2013-02-16 07:37:00,39.2,32.0,29.86,North,0,0.0,0.0,75,0.00,,,0.00,WUHU216HW,2013-02-16 12:37:00,
2013-02-16 07:42:00,39.2,32.3,29.86,North,0,0.0,0.0,76,0.00,,,0.00,WUHU216HW,2013-02-16 12:42:00,
2013-02-16 07:47:00,39.2,32.3,29.85,North,0,0.0,0.0,76,0.00,,,0.00,WUHU216HW,2013-02-16 12:47:00,
2013-02-16 07:52:00,39.2,32.3,29.85,North,0,0.0,0.0,76,0.00,,,0.00,WUHU216HW,2013-02-16 12:52:00,
2013-02-16 07:57:00,39.2,32.7,29.85,North,0,0.0,0.0,77,0.00,,,0.00,WUHU216HW,2013-02-16 12:57:00,
2013-02-16 08:02:00,38.9,32.3,29.85,North,0,0.0,0.0,77,0.00,,,0.00,WUHU216HW,2013-02-16 13:02:00,
2013-02-16 08:07:00,38.9,32.3,29.85,North,0,0.0,0.0,77,0.00,,,0.00,WUHU216HW,2013-02-16 13:07:00,
2013-02-16 08:12:00,38.9,32.3,29.85,North,0,0.0,0.0,77,0.00,,,0.00,WUHU216HW,2013-02-16 13:12:00,
2013-02-16 08:17:00,38.9,32.3,29.85,North,0,0.0,0.0,77,0.00,,,0.00,WUHU216HW,2013-02-16 13:17:00,
2013-02-16 08:22:00,38.9,32.3,29.85,North,0,0.0,0.0,77,0.00,,,0.00,WUHU216HW,2013-02-16 13:22:00,
2013-02-16 08:28:00,38.9,32.3,29.85,North,0,0.0,0.0,77,0.00,,,0.00,WUHU216HW,2013-02-16 13:28:00,
2013-02-16 08:33:00,38.9,32.3,29.85,North,0,0.0,0.0,77,0.00,,,0.00,WUHU216HW,2013-02-16 13:33:00,
2013-02-16 08:38:00,38.7,32.1,29.85,North,0,0.0,0.0,77,0.00,,,0.00,WUHU216HW,2013-02-16 13:38:00,
2013-02-16 08:43:00,38.5,32.0,29.85,North,0,0.0,0.0,77,0.00,,,0.00,WUHU216HW,2013-02-16 13:43:00,
2013-02-16 08:47:00,38.5,32.3,29.85,North,0,0.0,0.0,78,0.00,,,0.00,WUHU216HW,2013-02-16 13:47:00,
2013-02-16 08:53:00,38.5,32.3,29.85,North,0,0.0,0.0,78,0.00,,,0.00,WUHU216HW,2013-02-16 13:53:00,
2013-02-16 08:58:00,38.7,32.5,29.85,North,0,0.0,0.0,78,0.00,,,0.00,WUHU216HW,2013-02-16 13:58:00,
2013-02-16 09:03:00,38.9,32.6,29.85,North,0,0.0,0.0,78,0.00,,,0.00,WUHU216HW,2013-02-16 14:03:00,
2013-02-16 09:08:00,38.9,32.6,29.86,North,0,0.0,0.0,78,0.00,,,0.00,WUHU216HW,2013-02-16 14:08:00,
2013-02-16 09:13:00,38.9,32.6,29.86,North,0,0.0,0.0,78,0.00,,,0.00,WUHU216HW,2013-02-16 14:13:00,
2013-02-16 09:18:00,38.9,32.6,29.86,North,0,0.0,0.0,78,0.00,,,0.00,WUHU216HW,2013-02-16 14:18:00,
2013-02-16 09:23:00,38.9,32.9,29.85,North,0,0.0,0.0,79,0.00,,,0.00,WUHU216HW,2013-02-16 14:23:00,
2013-02-16 09:28:00,38.7,32.8,29.85,North,0,0.0,0.0,79,0.00,,,0.00,WUHU216HW,2013-02-16 14:28:00,
2013-02-16 09:33:00,38.7,32.8,29.85,North,0,0.0,0.0,79,0.00,,,0.00,WUHU216HW,2013-02-16 14:33:00,
2013-02-16 09:38:00,38.9,32.9,29.85,North,0,0.0,0.0,79,0.00,,,0.00,WUHU216HW,2013-02-16 14:38:00,
2013-02-16 09:44:00,38.9,32.9,29.85,North,0,0.0,0.0,79,0.00,,,0.00,WUHU216HW,2013-02-16 14:44:00,
2013-02-16 09:49:00,38.9,32.9,29.85,North,0,0.0,0.0,79,0.00,,,0.00,WUHU216HW,2013-02-16 14:49:00,
2013-02-16 09:54:00,38.9,32.9,29.85,North,0,0.0,0.0,79,0.00,,,0.00,WUHU216HW,2013-02-16 14:54:00,
2013-02-16 09:59:00,38.9,32.9,29.85,North,0,0.0,0.0,79,0.00,,,0.00,WUHU216HW,2013-02-16 14:59:00,
2013-02-16 10:01:00,38.9,32.9,29.85,North,0,0.0,0.0,79,0.00,,,0.00,WUHU216HW,2013-02-16 15:01:00,
2013-02-16 10:04:00,38.9,32.9,29.85,North,0,0.0,0.0,79,0.00,,,0.00,WUHU216HW,2013-02-16 15:04:00,
2013-02-16 10:09:00,38.9,32.9,29.85,North,0,0.0,0.0,79,0.00,,,0.00,WUHU216HW,2013-02-16 15:09:00,
2013-02-16 11:00:00,39.1,33.1,29.83,North,0,0.0,0.0,79,0.00,,,0.00,WUHU216HW,2013-02-16 16:00:00,
2013-02-16 11:05:00,39.1,33.1,29.83,North,0,0.0,0.0,79,0.00,,,0.00,WUHU216HW,2013-02-16 16:05:00,
2013-02-16 14:00:00,40.7,33.9,29.76,North,0,0.0,0.0,77,0.00,,,0.00,WUHU216HW,2013-02-16 19:00:00,
2013-02-16 14:05:00,40.7,33.9,29.75,North,0,0.0,0.0,77,0.00,,,0.00,WUHU216HW,2013-02-16 19:05:00,
2013-02-16 14:10:00,40.9,34.1,29.75,North,0,0.0,0.0,77,0.00,,,0.00,WUHU216HW,2013-02-16 19:10:00,
2013-02-16 14:13:00,41.0,34.3,29.75,North,0,0.0,0.0,77,0.00,,,0.00,WUHU216HW,2013-02-16 19:13:00,
2013-02-16 14:15:00,41.0,34.3,29.75,North,0,0.0,0.0,77,0.00,,,0.00,WUHU216HW,2013-02-16 19:15:00,
2013-02-16 14:20:00,41.0,34.3,29.75,North,0,0.0,0.0,77,0.00,,,0.00,WUHU216HW,2013-02-16 19:20:00,
2013-02-16 15:00:00,40.5,33.9,29.73,North,0,0.0,0.0,77,0.00,,,0.00,WUHU216HW,2013-02-16 20:00:00,
2013-02-16 15:05:00,40.7,33.9,29.73,North,0,0.0,0.0,77,0.00,,,0.00,WUHU216HW,2013-02-16 20:05:00,
2013-02-16 15:10:00,40.7,33.9,29.73,North,0,0.0,0.0,77,0.00,,,0.00,WUHU216HW,2013-02-16 20:10:00,
2013-02-16 15:15:00,41.0,34.3,29.73,North,0,0.0,0.0,77,0.00,,,0.00,WUHU216HW,2013-02-16 20:15:00,
2013-02-16 15:21:00,41.2,34.5,29.73,North,0,0.0,0.0,77,0.00,,,0.00,WUHU216HW,2013-02-16 20:21:00,
2013-02-16 15:26:00,41.4,34.4,29.73,North,0,0.0,0.0,76,0.00,,,0.00,WUHU216HW,2013-02-16 20:26:00,
2013-02-16 15:31:00,41.4,34.4,29.73,North,0,0.0,0.0,76,0.00,,,0.00,WUHU216HW,2013-02-16 20:31:00,
2013-02-16 15:36:00,41.4,34.4,29.73,North,0,0.0,0.0,76,0.00,,,0.00,WUHU216HW,2013-02-16 20:36:00,
2013-02-16 15:41:00,41.8,34.8,29.73,North,0,0.0,0.0,76,0.00,,,0.00,WUHU216HW,2013-02-16 20:41:00,
2013-02-16 15:46:00,41.9,34.6,29.72,North,0,0.0,0.0,75,0.00,,,0.00,WUHU216HW,2013-02-16 20:46:00,
2013-02-16 15:51:00,42.1,34.7,29.72,North,0,0.0,0.0,75,0.00,,,0.00,WUHU216HW,2013-02-16 20:51:00,
2013-02-16 15:56:00,41.9,34.6,29.73,North,0,0.0,0.0,75,0.00,,,0.00,WUHU216HW,2013-02-16 20:56:00,
2013-02-16 16:00:00,41.9,34.6,29.73,North,0,0.0,0.0,75,0.00,,,0.00,WUHU216HW,2013-02-16 21:00:00,
2013-02-16 16:01:00,41.9,34.6,29.73,North,0,0.0,0.0,75,0.00,,,0.00,WUHU216HW,2013-02-16 21:01:00,
2013-02-16 16:06:00,41.9,34.6,29.73,North,0,0.0,0.0,75,0.00,,,0.00,WUHU216HW,2013-02-16 21:06:00,
2013-02-16 17:00:00,37.8,31.2,29.76,North,0,0.0,0.0,77,0.00,,,0.00,WUHU216HW,2013-02-16 22:00:00,
2013-02-16 17:05:00,37.6,30.8,29.76,North,0,0.0,0.0,76,0.00,,,0.00,WUHU216HW,2013-02-16 22:05:00,
2013-02-16 17:10:00,37.4,30.6,29.76,North,0,0.0,0.0,76,0.00,,,0.00,WUHU216HW,2013-02-16 22:10:00,
2013-02-16 17:15:00,37.3,30.4,29.76,North,0,0.0,0.0,76,0.00,,,0.00,WUHU216HW,2013-02-16 22:15:00,
2013-02-16 17:20:00,37.3,30.7,29.76,North,0,0.0,0.0,77,0.00,,,0.00,WUHU216HW,2013-02-16 22:20:00,
2013-02-16 17:25:00,37.1,30.5,29.76,North,0,0.0,0.0,77,0.00,,,0.00,WUHU216HW,2013-02-16 22:25:00,
2013-02-16 17:31:00,37.1,30.5,29.76,North,0,0.0,0.0,77,0.00,,,0.00,WUHU216HW,2013-02-16 22:31:00,
2013-02-16 17:36:00,36.9,30.3,29.76,North,0,0.0,0.0,77,0.00,,,0.00,WUHU216HW,2013-02-16 22:36:00,
2013-02-16 17:41:00,36.7,30.5,29.76,North,0,0.0,0.0,78,0.00,,,0.00,WUHU216HW,2013-02-16 22:41:00,
2013-02-16 17:46:00,36.5,30.3,29.77,North,0,0.0,0.0,78,0.00,,,0.00,WUHU216HW,2013-02-16 22:46:00,
2013-02-16 17:51:00,36.4,30.2,29.77,North,0,0.0,0.0,78,0.00,,,0.00,WUHU216HW,2013-02-16 22:51:00,
2013-02-16 17:56:00,36.4,30.2,29.78,North,0,0.0,0.0,78,0.00,,,0.00,WUHU216HW,2013-02-16 22:56:00,
2013-02-16 18:01:00,36.4,30.2,29.78,North,0,0.0,0.0,78,0.00,,,0.00,WUHU216HW,2013-02-16 23:01:00,
2013-02-16 18:06:00,36.5,31.0,29.78,North,0,0.0,0.0,80,0.00,,,0.00,WUHU216HW,2013-02-16 23:06:00,
2013-02-16 18:11:00,36.7,30.8,29.78,North,0,0.0,0.0,79,0.00,,,0.00,WUHU216HW,2013-02-16 23:11:00,
2013-02-16 18:16:00,36.7,30.8,29.78,North,0,0.0,0.0,79,0.00,,,0.00,WUHU216HW,2013-02-16 23:16:00,
2013-02-16 18:21:00,36.5,30.6,29.79,North,0,0.0,0.0,79,0.00,,,0.00,WUHU216HW,2013-02-16 23:21:00,
2013-02-16 18:26:00,36.4,30.4,29.79,North,0,0.0,0.0,79,0.00,,,0.00,WUHU216HW,2013-02-16 23:26:00,
2013-02-16 18:31:00,36.2,30.2,29.79,North,0,0.0,0.0,79,0.00,,,0.00,WUHU216HW,2013-02-16 23:31:00,
2013-02-16 18:36:00,36.0,30.1,29.80,North,0,0.0,0.0,79,0.00,,,0.00,WUHU216HW,2013-02-16 23:36:00,
2013-02-16 18:41:00,36.2,30.6,29.80,North,0,0.0,0.0,80,0.00,,,0.00,WUHU216HW,2013-02-16 23:41:00,
2013-02-16 18:46:00,36.2,30.6,29.80,North,0,0.0,0.0,80,0.00,,,0.00,WUHU216HW,2013-02-16 23:46:00,
2013-02-16 19:00:00,35.8,30.2,29.82,North,0,0.0,0.0,80,0.00,,,0.00,WUHU216HW,2013-02-17 00:00:00,
2013-02-16 19:05:00,35.5,29.9,29.82,North,0,0.0,0.0,80,0.00,,,0.00,WUHU216HW,2013-02-17 00:05:00,
2013-02-16 19:10:00,35.3,29.7,29.82,North,0,0.0,0.0,80,0.00,,,0.00,WUHU216HW,2013-02-17 00:10:00,
2013-02-16 19:15:00,35.3,29.7,29.82,North,0,0.0,0.0,80,0.00,,,0.00,WUHU216HW,2013-02-17 00:15:00,
2013-02-16 19:20:00,35.5,29.9,29.82,North,0,0.0,0.0,80,0.00,,,0.00,WUHU216HW,2013-02-17 00:20:00,
2013-02-16 19:25:00,35.5,29.9,29.83,North,0,0.0,0.0,80,0.00,,,0.00,WUHU216HW,2013-02-17 00:25:00,
2013-02-16 19:30:00,35.5,29.9,29.83,North,0,0.0,0.0,80,0.00,,,0.00,WUHU216HW,2013-02-17 00:30:00,
2013-02-16 19:35:00,35.6,30.1,29.83,North,0,0.0,0.0,80,0.00,,,0.00,WUHU216HW,2013-02-17 00:35:00,
2013-02-16 19:40:00,35.6,30.1,29.82,North,0,0.0,0.0,80,0.00,,,0.00,WUHU216HW,2013-02-17 00:40:00,
2013-02-16 19:45:00,35.6,30.1,29.82,North,0,0.0,0.0,80,0.00,,,0.00,WUHU216HW,2013-02-17 00:45:00,
2013-02-16 19:50:00,35.6,30.1,29.83,North,0,0.0,0.0,80,0.00,,,0.00,WUHU216HW,2013-02-17 00:50:00,
2013-02-16 19:55:00,35.6,30.1,29.83,North,0,0.0,0.0,80,0.00,,,0.00,WUHU216HW,2013-02-17 00:55:00,
2013-02-16 20:00:00,35.6,30.1,29.83,North,0,0.0,0.0,80,0.00,,,0.00,WUHU216HW,2013-02-17 01:00:00,
2013-02-16 20:05:00,35.6,30.1,29.83,North,0,0.0,0.0,80,0.00,,,0.00,WUHU216HW,2013-02-17 01:05:00,
2013-02-16 20:10:00,35.6,30.1,29.83,North,0,0.0,0.0,80,0.00,,,0.00,WUHU216HW,2013-02-17 01:10:00,
2013-02-16 20:16:00,35.6,30.1,29.83,North,0,0.0,0.0,80,0.00,,,0.00,WUHU216HW,2013-02-17 01:16:00,
2013-02-16 20:21:00,35.6,30.1,29.83,North,0,0.0,0.0,80,0.00,,,0.00,WUHU216HW,2013-02-17 01:21:00,
2013-02-16 20:26:00,35.6,30.1,29.83,North,0,0.0,0.0,80,0.00,,,0.00,WUHU216HW,2013-02-17 01:26:00,
2013-02-16 20:31:00,35.6,30.1,29.83,North,0,0.0,0.0,80,0.00,,,0.00,WUHU216HW,2013-02-17 01:31:00,
2013-02-16 20:36:00,35.6,30.1,29.83,North,0,0.0,0.0,80,0.00,,,0.00,WUHU216HW,2013-02-17 01:36:00,
2013-02-16 20:41:00,35.5,29.9,29.83,North,0,0.0,0.0,80,0.00,,,0.00,WUHU216HW,2013-02-17 01:41:00,
2013-02-16 20:46:00,35.5,29.9,29.83,North,0,0.0,0.0,80,0.00,,,0.00,WUHU216HW,2013-02-17 01:46:00,
2013-02-16 20:51:00,35.5,29.9,29.84,North,0,0.0,0.0,80,0.00,,,0.00,WUHU216HW,2013-02-17 01:51:00,
2013-02-16 20:56:00,35.3,29.7,29.84,North,0,0.0,0.0,80,0.00,,,0.00,WUHU216HW,2013-02-17 01:56:00,
2013-02-16 21:01:00,35.3,29.7,29.84,North,0,0.0,0.0,80,0.00,,,0.00,WUHU216HW,2013-02-17 02:01:00,
2013-02-16 21:06:00,35.1,29.5,29.85,North,0,0.0,0.0,80,0.00,,,0.00,WUHU216HW,2013-02-17 02:06:00,
2013-02-16 21:11:00,34.9,29.3,29.85,North,0,0.0,0.0,80,0.00,,,0.00,WUHU216HW,2013-02-17 02:11:00,
2013-02-16 21:16:00,34.9,29.3,29.85,North,0,0.0,0.0,80,0.00,,,0.00,WUHU216HW,2013-02-17 02:16:00,
2013-02-16 21:21:00,34.9,29.3,29.85,North,0,0.0,0.0,80,0.00,,,0.00,WUHU216HW,2013-02-17 02:21:00,
2013-02-16 21:26:00,34.7,29.2,29.85,North,0,0.0,0.0,80,0.00,,,0.00,WUHU216HW,2013-02-17 02:26:00,
2013-02-16 21:31:00,34.6,29.0,29.86,North,0,0.0,0.0,80,0.00,,,0.00,WUHU216HW,2013-02-17 02:31:00,
2013-02-16 21:36:00,34.6,29.0,29.86,North,0,0.0,0.0,80,0.00,,,0.00,WUHU216HW,2013-02-17 02:36:00,
2013-02-16 21:41:00,34.4,28.8,29.86,North,0,0.0,0.0,80,0.00,,,0.00,WUHU216HW,2013-02-17 02:41:00,
2013-02-16 21:46:00,34.4,28.8,29.86,North,0,0.0,0.0,80,0.00,,,0.00,WUHU216HW,2013-02-17 02:46:00,
2013-02-16 21:51:00,34.2,28.6,29.86,North,0,0.0,0.0,80,0.00,,,0.00,WUHU216HW,2013-02-17 02:51:00,
2013-02-16 21:56:00,34.2,28.6,29.86,North,0,0.0,0.0,80,0.00,,,0.00,WUHU216HW,2013-02-17 02:56:00,
2013-02-16 22:01:00,34.2,28.6,29.87,North,0,0.0,0.0,80,0.00,,,0.00,WUHU216HW,2013-02-17 03:01:00,
2013-02-16 22:06:00,34.0,28.4,29.87,North,0,0.0,0.0,80,0.00,,,0.00,WUHU216HW,2013-02-17 03:06:00,
2013-02-16 22:12:00,34.0,28.4,29.87,North,0,0.0,0.0,80,0.00,,,0.00,WUHU216HW,2013-02-17 03:12:00,
2013-02-16 22:17:00,33.8,28.3,29.87,North,0,0.0,0.0,80,0.00,,,0.00,WUHU216HW,2013-02-17 03:17:00,
2013-02-16 22:22:00,33.8,28.3,29.87,North,0,0.0,0.0,80,0.00,,,0.00,WUHU216HW,2013-02-17 03:22:00,
2013-02-16 22:27:00,33.7,28.1,29.87,North,0,0.0,0.0,80,0.00,,,0.00,WUHU216HW,2013-02-17 03:27:00,
2013-02-16 22:32:00,33.5,27.9,29.87,North,0,0.0,0.0,80,0.00,,,0.00,WUHU216HW,2013-02-17 03:32:00,
2013-02-16 22:37:00,33.5,27.9,29.87,North,0,0.0,0.0,80,0.00,,,0.00,WUHU216HW,2013-02-17 03:37:00,
2013-02-16 22:42:00,33.5,27.9,29.88,North,0,0.0,0.0,80,0.00,,,0.00,WUHU216HW,2013-02-17 03:42:00,
2013-02-16 22:47:00,33.3,27.8,29.88,North,0,0.0,0.0,80,0.00,,,0.00,WUHU216HW,2013-02-17 03:47:00,
2013-02-16 22:52:00,33.1,27.6,29.88,North,0,0.0,0.0,80,0.00,,,0.00,WUHU216HW,2013-02-17 03:52:00,
2013-02-16 22:57:00,33.1,27.6,29.88,North,0,0.0,0.0,80,0.00,,,0.00,WUHU216HW,2013-02-17 03:57:00,
2013-02-16 23:02:00,32.9,27.5,29.88,North,0,0.0,0.0,80,0.00,,,0.00,WUHU216HW,2013-02-17 04:02:00,
2013-02-16 23:07:00,32.9,27.5,29.88,North,0,0.0,0.0,80,0.00,,,0.00,WUHU216HW,2013-02-17 04:07:00,
2013-02-16 23:12:00,32.8,27.3,29.88,North,0,0.0,0.0,80,0.00,,,0.00,WUHU216HW,2013-02-17 04:12:00,
2013-02-16 23:17:00,32.8,27.3,29.88,North,0,0.0,0.0,80,0.00,,,0.00,WUHU216HW,2013-02-17 04:17:00,
2013-02-16 23:22:00,32.8,27.3,29.88,North,0,0.0,0.0,80,0.00,,,0.00,WUHU216HW,2013-02-17 04:22:00,
2013-02-16 23:27:00,32.8,27.3,29.88,North,0,0.0,0.0,80,0.00,,,0.00,WUHU216HW,2013-02-17 04:27:00,
2013-02-16 23:32:00,32.6,27.1,29.88,North,0,0.0,0.0,80,0.00,,,0.00,WUHU216HW,2013-02-17 04:32:00,
2013-02-16 23:37:00,32.4,27.0,29.88,North,0,0.0,0.0,80,0.00,,,0.00,WUHU216HW,2013-02-17 04:37:00,
2013-02-16 23:42:00,32.4,27.0,29.89,North,0,0.0,0.0,80,0.00,,,0.00,WUHU216HW,2013-02-17 04:42:00,
2013-02-16 23:47:00,32.2,26.8,29.88,North,0,0.0,0.0,80,0.00,,,0.00,WUHU216HW,2013-02-17 04:47:00,
2013-02-16 23:52:00,32.2,26.8,29.89,North,0,0.0,0.0,80,0.00,,,0.00,WUHU216HW,2013-02-17 04:52:00,
2013-02-16 23:57:00,32.0,26.3,29.89,North,0,0.0,0.0,79,0.00,,,0.00,WUHU216HW,2013-02-17 04:57:00,